DECAYED

STARLINK-4587, 53635 (Decayed)

Orbit data source: Space-Track

STARLINK-4587, 53635 was a payload satellite owned by SpaceX/Seattle (US) in LEO that was launched on Sun, 28 Aug 2022 UTC via an FALCON 9 launch vehicle from the Air Force Eastern Test Range (AFETR). Payload-class satellites include a variety of spacecraft equipped with specific instruments for various scientific and technological missions. These include communications satellites like Starlink; space stations such as the ISS; scientific satellites like the Hubble; Earth observation satellites from companies like Planet Labs, Umbra, and HawkEye 360; GPS; miniature CubeSats for education and research; and military/defense satellites.

Not visible in the next 10 days
Identifier
53635, 2022-104AZ
Orbit
Decayed
Country
Flag of USUS
Related business
Manufacturer
SpaceX/Seattle
Mission
Decayed Commercial Communications
Bus & Motor
STARLINK, Unknown motor
Mass
300 kg wet, ~290 kg dry
Launch date (UTC)
2022-08-28 (4 years ago)
Launch vehicle
FALCON 9
Launch site
Air Force Eastern Test Range (AFETR)
Object type
Payload
Rocket body
Debris
Shape & HBR
Box + 1 Pan, 10.1 m
Radar Cross Section
13.562 m², Large (>1 m²)

Expand to show TLE details & history
Last TLE update: 5 months ago

TLE from 5 months ago
0 STARLINK-4587
1 53635U 22104AZ  26034.20409582  .12265015  12470-4  18417-3 0  9990
2 53635  53.2040 354.2128 0006347 173.6957 186.4177 16.48242807191367
Epoch: 2026-02-03T04:53Z
TLE epoch observation values (Epoch: 2026-02-03T04:53:53.878Z)
Latitude
0.00002°
Longitude
147.34993°
Altitude
149.031 km
Speed
7.816 km/s
True Right ascension
23h 36m 51s
True Declination
0° 00' 00"
Sunlit
Object was in daylight at epoch
Visualization orbit readout
Latitude
Unknown
Longitude
Unknown
Altitude
Unknown
Speed
Unknown
Apparent Right ascension
Unknown
Apparent Declination
Unknown
Sunlit
N/A
Visualization observer readout
Local Sidereal Time
21:37:16
Azimuth
Unknown
Elevation
Unknown
Doppler factor
Unknown
Orbital elements
Apogee altitude
148.368 km
Perigee altitude
140.089 km
Semi-major axis
6,522.366 km
Eccentricity
0.00063
Inclination
53.204°
RAAN
354.2128°
Arg. of periapsis
173.6957°
True anomaly
186.40958°
Mean anomaly
186.4177°
Eccentric anomaly
186.41364°
Mean motion
4.12036 °/min
Orbital period
87.37 mins
BSTAR
0.00018417
Loading maneuver chart data...
Computing Atmospheric mass density...
Loading historical data...
Loading historical data...
Loading historical data...
Loading historical data...
Loading historical data...
Loading historical data...
Loading historical data...

Documentation

Showing up to 5 results
|